Location: *
(51.1248°S, 108.4023°W)
Time: 01:04:00
(UTC+00:00)

OBJECT-B - Visible Passes

Search period start: 24 October 2021 00:00
Search period end: 03 November 2021 00:00
Orbit: 407 x 417 km, 96.9° (Epoch: 11 October)

Date Brightness Start Highest point End Pass type
(mag) Time Alt. Az. Time Alt. Az. Time Alt. Az.
24 Oct 2.9 02:35:53 10° ESE 02:37:12 12° E 02:38:30 10° ENE visible
24 Oct 1.6 04:06:22 10° S 04:09:34 52° WSW 04:12:12 14° NNW visible
25 Oct 1.3 03:19:40 10° SSE 03:22:44 38° E 03:25:07 15° NNE visible
25 Oct 3.7 04:52:21 10° SSW 04:54:30 17° WSW 04:56:38 10° WNW visible
26 Oct 1.5 04:04:46 10° S 04:07:58 54° WSW 04:10:53 12° NNW visible
27 Oct 1.4 03:18:02 10° SSE 03:21:05 36° E 03:23:44 12° NNE visible
27 Oct 3.7 04:50:39 10° SSW 04:52:53 17° WSW 04:55:04 10° WNW visible
28 Oct 1.4 04:03:04 10° S 04:06:16 57° WSW 04:09:26 10° NNW visible
29 Oct 1.4 03:16:20 10° SSE 03:19:21 35° E 03:22:17 10° NNE visible
29 Oct 3.6 04:48:53 10° SSW 04:51:09 18° WSW 04:53:24 10° WNW visible
30 Oct 1.3 04:01:17 10° S 04:04:30 60° WSW 04:07:40 10° NNW visible
31 Oct 1.5 03:14:32 10° SSE 03:17:31 33° E 03:20:28 10° NNE visible
31 Oct 3.6 04:47:00 10° SSW 04:49:20 18° WSW 04:51:39 10° WNW visible
01 Nov 1.2 03:59:24 10° S 04:02:38 63° WSW 04:05:48 10° NNW visible
02 Nov 1.6 03:12:38 10° SSE 03:15:35 31° E 03:18:30 10° NNE visible
02 Nov 3.5 04:45:02 10° SSW 04:47:25 19° WSW 04:49:48 10° WNW visible
